FENGYUN 1C DEB, 31888

Orbit data source: Space-Track

FENGYUN 1C DEB, 31888 is space debris in SSO originally from a launch on Mon, 10 May 1999 UTC launched from the Taiyaun Space Center, China (TSC). Fengyun 1C debris stems from the Chinese weather satellite Fengyun-1C, which was intentionally destroyed by a Chinese anti-satellite missile in 2007. This event dramatically increased the amount of space debris, with thousands of trackable fragments posing hazards to satellites and human spaceflight. The Fengyun 1C debris cloud has become a focal point in discussions about space sustainability and the need for international regulations to prevent the creation of new debris.

Loading next visibility...
Identifier
31888, 1999-025CKP
Orbit
SSO
Country
Flag of CNCN / PRC
Related business
Manufacturer
Unknown
Mission
Spacecraft
Bus & Motor
Unknown
Mass
Unknown
Launch date (UTC)
1999-05-10 (27 years ago)
Launch vehicle
Unknown
Launch site
Taiyaun Space Center, China (TSC)
Object type
Payload
Rocket body
Debris
Shape & HBR
Unknown shape, 0.1 m
Radar Cross Section
Small (<0.1 m²)

Expand to show TLE details & history
Last TLE update: 2 days ago

TLE from 2 days ago
0 FENGYUN 1C DEB
1 31888U 99025CKP 26150.06389006  .00006317  00000-0  21925-2 0  9997
2 31888  99.1603  91.5572 0020470  83.1395 277.2117 14.35801482980515
Epoch: 2026-05-30T01:32Z
TLE epoch observation values (Epoch: 2026-05-30T01:32:00.101Z)
Latitude
0.00002°
Longitude
-179.02851°
Altitude
773.517 km
Speed
7.468 km/s
True Right ascension
06h 06m 13s
True Declination
0° 00' 00"
Sunlit
Object was in daylight at epoch
Visualization orbit readout
Latitude
Unknown
Longitude
Unknown
Altitude
Unknown
Speed
Unknown
Apparent Right ascension
Unknown
Apparent Declination
Unknown
Sunlit
N/A
Visualization observer readout
Local Sidereal Time
00:27:12
Azimuth
Unknown
Elevation
Unknown
Doppler factor
Unknown
Orbital elements
Apogee altitude
784.195 km
Perigee altitude
754.933 km
Semi-major axis
7,147.701 km
Eccentricity
0.00205
Inclination
99.1603°
RAAN
91.5572°
Arg. of periapsis
83.1395°
True anomaly
276.97891°
Mean anomaly
277.2117°
Eccentric anomaly
277.09531°
Mean motion
3.59165 °/min
Orbital period
100.23 mins
BSTAR
0.0021925
Loading maneuver chart data...
Computing Atmospheric mass density...
Loading historical data...
Loading historical data...
Loading historical data...
Loading historical data...
Loading historical data...
Loading historical data...
Loading historical data...

Documentation

Showing up to 5 results
|